Regional Weather Roundup
Issued by NWS Northern Indiana

Home | Current Version | Previous Version | Text Only | Print | Product List | Glossary On
Versions: 1 2 3 4 5 6 7 8 9 10 11 12 13 14 15 16 17 18 19 20 21 22 23 24 25 26 27 28 29 30 31 32 33 34 35 36 37 38 39 40 41 42 43 44 45 46 47 48 49 50
000
ASUS43 KIWX 181210
RWRIWX

KIWX WEATHER ROUNDUP
NATIONAL WEATHER SERVICE NORTHERN INDIANA
800 AM EDT THU SEP 18 2014

NOTE: "FAIR" INDICATES FEW OR NO CLOUDS BELOW 12,000 FEET WITH NO
SIGNIFICANT WEATHER AND/OR OBSTRUCTIONS TO VISIBILITY.

* THESE STATIONS ARE NOT UNDER NWS QUALITY CONTROL. THEY ALSO MAY NOT
  REPORT WEATHER SUCH AS PRECIPITATION OR FOG.

INZ001>027-181300-
NORTHERN INDIANA

CITY           SKY/WX    TMP DP  RH WIND       PRES   REMARKS
GARY*          PTCLDY    46  45  93 CALM        N/A  FOG
VALPARAISO     CLEAR     44  43  96 NE3       30.10R
6HR MIN TEMP:  43; 6HR MAX TEMP:  49;

MICHIGAN CITY* CLEAR     43  43 100 CALM      30.10R FOG
LAPORTE*       CLEAR     42  42 100 CALM      30.11R
6HR MIN TEMP:  41; 6HR MAX TEMP:  46;

KNOX*            N/A     41  40  95 CALM      30.09R VSB 1/2
6HR MIN TEMP:  41; 6HR MAX TEMP:  89;

SOUTH BEND     CLEAR     44  41  89 CALM      30.11R
6HR MIN TEMP:  43; 6HR MAX TEMP:  48;

ELKHART*       CLEAR     43  43 100 CALM      30.11R
GOSHEN         CLEAR     41  41 100 CALM      30.10R FOG
6HR MIN TEMP:  41; 6HR MAX TEMP:  45;

MONTICELLO*    CLEAR     46  45  97 NE3       30.07R
6HR MIN TEMP:  43; 6HR MAX TEMP:  49;

LOGANSPORT*    CLEAR     43  43 100 CALM      30.09R FOG
ROCHESTER*     CLEAR     46  46 100 CALM      30.09R FOG
WARSAW*        CLEAR     43  43 100 CALM      30.09R FOG
ANGOLA*        CLEAR     45  45 100 NE3       30.09S
FORT WAYNE     CLEAR     46  44  93 N5        30.09R
6HR MIN TEMP:  44; 6HR MAX TEMP:  49;

HUNTINGTON*    CLEAR     43  43  99 CALM      30.08R FOG
6HR MIN TEMP:  42; 6HR MAX TEMP:  47;

PERU/GRISSOM   CLEAR     44  44 100 NE3       30.08R
6HR MIN TEMP:  44; 6HR MAX TEMP:  50;

MARION*        LGT SNOW  40  40  99 CALM      30.08R
6HR MIN TEMP:  40; 6HR MAX TEMP:  90;


$$
INZ028>050-181300-
CENTRAL INDIANA

CITY           SKY/WX    TMP DP  RH WIND       PRES   REMARKS
LAFAYETTE      CLEAR     45  45 100 CALM      30.08R
6HR MIN TEMP:  44; 6HR MAX TEMP:  51;

KOKOMO*        CLEAR     45  41  87 CALM      30.08R
6HR MIN TEMP:  41; 6HR MAX TEMP:  52;

MUNCIE*        FOG       44  43  96 CALM      30.07R VSB 1
6HR MIN TEMP:  43; 6HR MAX TEMP:  50;

INDIANAPOLIS   CLEAR     51  47  86 N5        30.06R
6HR MIN TEMP:  49; 6HR MAX TEMP:  54;


$$
MIZ043>046-050>051-056>058-064>065-071>073-077>080-181300-
SOUTHWEST LOWER MICHIGAN

CITY           SKY/WX    TMP DP  RH WIND       PRES   REMARKS
BATTLE CREEK   CLEAR     45  42  89 CALM      30.12R
6HR MIN TEMP:  43; 6HR MAX TEMP:  47;

BENTON HARBOR  PTCLDY    40  40 100 E3        30.10R
6HR MIN TEMP:  40; 6HR MAX TEMP:  43;

COLDWATER*     FOG       43  42  97 CALM      30.11R VSB 1/4
6HR MIN TEMP:  42; 6HR MAX TEMP:  46;

HILLSDALE*     CLEAR     47  47  99 N5        30.10R
6HR MIN TEMP:  41; 6HR MAX TEMP:  47;

HOLLAND        CLOUDY    50  47  89 CALM      30.11R
6HR MIN TEMP:  44; 6HR MAX TEMP:  50;

GRAND RAPIDS   PTCLDY    45  42  89 N6        30.12R
6HR MIN TEMP:  43; 6HR MAX TEMP:  48;

KALAMAZOO      CLEAR     44  41  89 CALM      30.11R
6HR MIN TEMP:  41; 6HR MAX TEMP:  45;

STURGIS*         N/A     45  45 100 NE5       30.10R FOG
THREE RIVERS*  FOG       42  41  95 CALM      30.11R VSB<1/4
6HR MIN TEMP:  41; 6HR MAX TEMP:  45;


$$
OHZ001>008-015>018-024>025-181300-
NORTHWEST OHIO

CITY           SKY/WX    TMP DP  RH WIND       PRES   REMARKS
WAUSEON*       FAIR      45  45 100 CALM      30.09R
DEFIANCE       CLEAR     47  43  86 N3        30.09S FOG
6HR MIN TEMP:  42; 6HR MAX TEMP:  51;

FINDLAY        CLEAR     47  45  93 CALM      30.07S FOG
6HR MIN TEMP:  45; 6HR MAX TEMP:  51;

TOLEDO EXPRESS CLEAR     46  43  89 CALM      30.09R
6HR MIN TEMP:  43; 6HR MAX TEMP:  50;

TOLEDO METCALF CLEAR     49  44  83 N6        30.09R
6HR MIN TEMP:  46; 6HR MAX TEMP:  54;

LIMA           CLEAR     45  44  97 CALM      30.07R FOG
6HR MIN TEMP:  44; 6HR MAX TEMP:  50;


$$
&&



USA.gov is the U.S. government's official web portal to all federal, state and local government web resources and services.